This demonstration page uses our WeatherBlox Daily Observations layout. Learn more.

Left ArrowRight Arrow

Hourly Observations for August 31, 2015

Temp ( °F °C ) Dew Point ( °F °C ) Humidity (%) Winds ( mph kmh ) Pressure ( in mb ) Visibility ( mi km ) Precip ( " mm )
12:15 am 00:15 Clear 68 19.8 64 17.6 87 87 SSE 12 19 29.85 1011 10 16 N/A
12:35 am 00:35 Clear 67 19.7 64 17.6 88 88 S 12 19 29.85 1011 10 16 N/A
12:55 am 00:55 Clear 67 19.7 64 17.7 88 88 SSE 15 24 29.85 1011 10 16 N/A
1:15 am 01:15 Clear 67 19.7 64 17.7 88 88 S 15 24 29.85 1011 10 16 N/A
1:35 am 01:35 Clear 68 19.9 64 17.8 88 88 S 16 26 29.85 1011 10 16 N/A
1:55 am 01:55 Clear 67 19.7 64 17.7 88 88 S 14 22 29.85 1011 10 16 N/A
2:15 am 02:15 Clear 67 19.5 64 17.6 89 89 S 12 19 29.85 1011 10 16 N/A
2:35 am 02:35 Clear 67 19.3 64 17.5 89 89 S 10 17 29.88 1012 10 16 N/A
2:55 am 02:55 Clear 67 19.3 64 17.5 89 89 S 15 24 29.88 1012 10 16 N/A
3:15 am 03:15 Clear 67 19.4 64 17.5 89 89 S 15 24 29.88 1012 10 16 N/A
3:35 am 03:35 Clear 67 19.2 64 17.5 90 90 S 14 22 29.88 1012 10 16 N/A
3:55 am 03:55 Clear 66 19 63 17.3 90 90 S 15 24 29.88 1012 10 16 N/A
4:15 am 04:15 Clear 66 18.8 63 17.1 90 90 S 10 17 29.88 1012 10 16 N/A
4:35 am 04:35 Clear 65 18.4 62 16.9 91 91 S 9 15 29.88 1012 10 16 N/A
4:55 am 04:55 Clear 64 18 62 16.6 92 92 SSW 7 11 29.88 1012 10 16 N/A
5:15 am 05:15 Clear 63 17.4 61 16.3 93 93 SSW 5 7 29.88 1012 10 16 N/A
5:35 am 05:35 Clear 62 16.8 60 15.8 94 94 S 3 6 29.88 1012 7 11 N/A
5:55 am 05:55 Clear 62 16.6 60 15.6 94 94 SSE 6 9 29.85 1011 7 11 N/A
6:15 am 06:15 Clear 62 16.8 61 16 95 95 SSE 5 7 29.85 1011 7 11 N/A
6:35 am 06:35 Clear 62 16.5 60 15.7 95 95 SSE 7 11 29.85 1011 7 11 N/A
6:55 am 06:55 Clear 62 16.6 60 15.7 94 94 SE 5 7 29.85 1011 7 11 N/A
7:15 am 07:15 Sunny with Mist and Fog 61 16 59 15.2 95 95 SE 5 7 29.85 1011 5 8 N/A
7:35 am 07:35 Sunny with Mist and Fog 60 15.8 59 15.1 96 96 E 3 6 29.88 1012 3 5 N/A
7:55 am 07:55 Sunny with Mist and Fog 62 16.6 61 15.9 96 96 SE 6 9 29.88 1012 5 8 N/A
8:15 am 08:15 Sunny 64 17.6 62 16.8 95 95 Calm 29.88 1012 7 11 N/A
8:35 am 08:35 Sunny 65 18.1 63 17 93 93 Calm 29.88 1012 7 11 N/A
8:55 am 08:55 Sunny 66 18.7 63 17.4 92 92 SE 6 9 29.88 1012 7 11 N/A
9:15 am 09:15 Sunny 68 19.8 65 18.1 90 90 SSE 8 13 29.85 1011 10 16 N/A
9:35 am 09:35 Sunny 69 20.7 65 18.3 86 86 SSE 9 15 29.85 1011 10 16 N/A
9:55 am 09:55 Sunny 73 22.5 65 18.6 79 79 S 9 15 29.83 1010 10 16 N/A
10:15 am 10:15 Sunny 75 23.7 65 18.4 72 72 SSW 10 17 29.83 1010 10 16 N/A
10:35 am 10:35 Sunny 77 24.9 65 18.3 67 67 S 14 22 29.83 1010 10 16 N/A
10:55 am 10:55 Sunny 78 25.6 65 18.3 64 64 SW 7 11 29.85 1011 10 16 N/A
11:15 am 11:15 Sunny 81 27 65 18.3 59 59 SSW 9 15 29.80 1009 10 16 N/A
11:35 am 11:35 Sunny 82 27.6 63 17.4 54 54 S 13 20 29.80 1009 10 16 N/A
11:55 am 11:55 Sunny 83 28.2 62 16.8 50 50 S 13 20 29.80 1009 10 16 N/A
12:15 pm 12:15 Sunny 84 28.8 61 16.2 46 46 S 13 20 29.80 1009 10 16 N/A
12:35 pm 12:35 Sunny 85 29.5 61 16.1 44 44 SSW 10 17 29.77 1008 10 16 N/A
12:55 pm 12:55 Sunny 86 30 61 16.1 43 43 S 7 11 29.77 1008 10 16 N/A
1:15 pm 13:15 Sunny 86 30 61 16.1 43 43 S 7 11 29.77 1008 10 16 N/A
1:35 pm 13:35 Sunny 87 30.5 62 16.4 43 43 SSW 9 15 29.77 1008 10 16 N/A
1:55 pm 13:55 Sunny 87 30.4 63 17 45 45 S 3 6 29.77 1008 10 16 N/A
2:15 pm 14:15 Sunny 87 30.6 64 17.7 46 46 SE 9 15 29.74 1007 10 16 N/A
2:35 pm 14:35 Sunny 89 31.4 64 17.8 44 44 SSE 8 13 29.74 1007 10 16 N/A
2:55 pm 14:55 Sunny 89 31.4 66 18.7 47 47 SE 9 15 29.74 1007 10 16 N/A
3:15 pm 15:15 Sunny 89 31.5 65 18.2 45 45 SE 7 11 29.74 1007 10 16 N/A
3:35 pm 15:35 Sunny 90 32 64 18 43 43 SSE 9 15 29.74 1007 10 16 N/A
3:55 pm 15:55 Sunny 90 32 64 17.7 42 42 S 6 9 29.74 1007 10 16 N/A
4:15 pm 16:15 Sunny 90 32.2 66 18.8 45 45 SSE 10 17 29.74 1007 10 16 N/A
4:35 pm 16:35 Sunny 90 32.1 65 18.6 45 45 SSE 9 15 29.74 1007 10 16 N/A
4:55 pm 16:55 Sunny 91 32.5 65 18.4 43 43 SSE 12 19 29.74 1007 10 16 N/A
5:15 pm 17:15 Sunny 91 32.5 65 18.5 43 43 SE 13 20 29.74 1007 10 16 N/A
5:35 pm 17:35 Sunny 90 32.1 66 18.7 45 45 SSE 14 22 29.74 1007 10 16 N/A
5:55 pm 17:55 Sunny 90 32.1 65 18.3 44 44 SE 13 20 29.71 1006 10 16 N/A
6:15 pm 18:15 Sunny 89 31.9 64 17.7 43 43 SE 14 22 29.71 1006 10 16 N/A
6:35 pm 18:35 Sunny 89 31.7 65 18.1 44 44 SE 10 17 29.71 1006 10 16 N/A
7:15 pm 19:15 Sunny 87 30.5 66 19 50 50 ESE 6 9 29.74 1007 10 16 N/A
7:35 pm 19:35 Sunny 83 28.2 69 20.7 64 64 NE 7 11 29.74 1007 10 16 N/A
7:55 pm 19:55 Sunny 80 26.9 70 21 70 70 ENE 6 9 29.74 1007 10 16 N/A
8:15 pm 20:15 Clear 78 25.3 69 20.5 75 75 ENE 6 9 29.77 1008 7 11 N/A
8:35 pm 20:35 Clear 76 24.3 69 20.6 80 80 NE 6 9 29.80 1009 10 16 N/A
8:55 pm 20:55 Clear 74 23.6 68 20.1 81 81 ENE 6 9 29.80 1009 10 16 N/A
9:15 pm 21:15 Clear 74 23.4 68 19.8 80 80 ENE 6 9 29.80 1009 10 16 N/A
9:35 pm 21:35 Clear 73 22.9 67 19.5 81 81 E 8 13 29.80 1009 10 16 N/A
9:55 pm 21:55 Clear 73 23 67 19.3 80 80 E 7 11 29.80 1009 10 16 N/A
10:15 pm 22:15 Clear 73 22.9 66 18.7 77 77 E 6 9 29.80 1009 10 16 N/A
10:35 pm 22:35 Clear 71 21.7 65 18.6 83 83 E 6 9 29.83 1010 10 16 N/A
10:55 pm 22:55 Clear 71 21.6 66 18.7 84 84 E 6 9 29.83 1010 10 16 N/A
11:15 pm 23:15 Clear 69 20.8 65 18.3 86 86 E 8 13 29.83 1010 10 16 N/A
11:35 pm 23:35 Clear 71 21.8 65 18.2 80 80 ESE 6 9 29.83 1010 10 16 N/A
11:55 pm 23:55 Clear 71 21.7 64 17.8 79 79 ESE 5 7 29.83 1010 10 16 N/A

Powered by AerisWeather